TimeEDT,TemperatureF,Dew PointF,Humidity,Sea Level PressureIn,VisibilityMPH,Wind Direction,Wind SpeedMPH,Gust SpeedMPH,PrecipitationIn,Events,Conditions,WindDirDegrees,DateUTC
12:15 AM,52.9,37.0,55,30.08,10.0,Calm,Calm,-,N/A,,Clear,0,2014-04-03 04:15:00
12:35 AM,51.8,37.0,57,30.08,10.0,WNW,3.5,-,N/A,,Clear,290,2014-04-03 04:35:00
12:55 AM,58.8,31.6,36,30.08,10.0,WSW,3.5,-,N/A,,Clear,250,2014-04-03 04:55:00
1:35 AM,56.8,38.8,51,30.08,10.0,NW,4.6,-,N/A,,Clear,320,2014-04-03 05:35:00
1:55 AM,51.3,38.3,61,30.07,10.0,Calm,Calm,-,N/A,,Clear,0,2014-04-03 05:55:00
2:15 AM,50.0,39.6,67,30.06,10.0,Calm,Calm,-,N/A,,Clear,0,2014-04-03 06:15:00
2:35 AM,49.6,38.8,66,30.06,10.0,Calm,Calm,-,N/A,,Clear,0,2014-04-03 06:35:00
2:55 AM,50.9,37.0,59,30.06,10.0,Calm,Calm,-,N/A,,Clear,0,2014-04-03 06:55:00
3:15 AM,52.2,39.7,63,30.06,10.0,Calm,Calm,-,N/A,,Clear,0,2014-04-03 07:15:00
3:35 AM,49.5,40.1,70,30.05,10.0,North,3.5,-,N/A,,Clear,350,2014-04-03 07:35:00
3:55 AM,53.4,40.5,61,30.06,10.0,Calm,Calm,-,N/A,,Clear,0,2014-04-03 07:55:00
4:15 AM,52.3,41.2,66,30.06,10.0,Calm,Calm,-,N/A,,Clear,0,2014-04-03 08:15:00
4:35 AM,52.2,41.9,68,30.06,10.0,Calm,Calm,-,N/A,,Clear,0,2014-04-03 08:35:00
4:55 AM,49.8,42.8,77,30.06,10.0,Calm,Calm,-,N/A,,Clear,0,2014-04-03 08:55:00
5:15 AM,49.5,43.7,81,30.06,10.0,Calm,Calm,-,N/A,,Clear,0,2014-04-03 09:15:00
5:35 AM,51.1,45.1,80,30.06,10.0,Calm,Calm,-,N/A,,Scattered Clouds,0,2014-04-03 09:35:00
5:55 AM,51.1,43.9,76,30.06,10.0,NW,3.5,-,N/A,,Mostly Cloudy,320,2014-04-03 09:55:00
6:15 AM,53.2,43.0,68,30.07,10.0,Calm,Calm,-,N/A,,Scattered Clouds,0,2014-04-03 10:15:00
6:35 AM,52.2,44.6,75,30.09,10.0,Calm,Calm,-,N/A,,Scattered Clouds,0,2014-04-03 10:35:00
6:55 AM,51.3,45.1,80,30.08,10.0,Calm,Calm,-,N/A,,Mostly Cloudy,0,2014-04-03 10:55:00
7:15 AM,51.8,47.1,84,30.09,10.0,Calm,Calm,-,N/A,Rain,Light Rain,0,2014-04-03 11:15:00
7:35 AM,53.2,46.6,78,30.11,10.0,Calm,Calm,-,N/A,Rain,Light Rain,0,2014-04-03 11:35:00
8:15 AM,53.2,45.3,74,30.14,10.0,South,3.5,-,N/A,,Light Drizzle,180,2014-04-03 12:15:00
8:35 AM,52.7,46.2,79,30.14,10.0,North,4.6,-,N/A,Rain,Light Rain,360,2014-04-03 12:35:00
8:55 AM,54.1,45.1,72,30.16,10.0,ENE,6.9,-,N/A,Rain,Rain,60,2014-04-03 12:55:00
9:15 AM,51.3,48.7,91,30.14,7.0,Calm,Calm,-,0.01,Rain,Rain,0,2014-04-03 13:15:00
9:35 AM,51.8,50.2,94,30.15,4.0,Calm,Calm,-,0.01,Rain,Rain,0,2014-04-03 13:35:00
9:55 AM,51.8,50.9,97,30.10,7.0,North,4.6,-,0.02,Rain,Rain,360,2014-04-03 13:55:00
10:15 AM,52.9,52.2,97,30.10,7.0,Calm,Calm,-,N/A,Rain,Light Rain,0,2014-04-03 14:15:00
10:35 AM,53.8,53.1,97,30.10,7.0,North,3.5,-,N/A,,Clear,360,2014-04-03 14:35:00
10:55 AM,55.6,54.7,97,30.12,10.0,Calm,Calm,-,N/A,,Clear,0,2014-04-03 14:55:00
11:15 AM,58.6,53.2,82,30.13,10.0,ENE,4.6,-,N/A,,Clear,60,2014-04-03 15:15:00
11:35 AM,59.2,52.3,78,30.13,10.0,Calm,Calm,-,N/A,,Scattered Clouds,0,2014-04-03 15:35:00
11:55 AM,59.7,52.2,76,30.11,10.0,ESE,5.8,-,N/A,,Scattered Clouds,110,2014-04-03 15:55:00
12:15 PM,62.8,52.9,70,30.11,10.0,SE,6.9,-,N/A,,Clear,130,2014-04-03 16:15:00
12:35 PM,64.0,53.2,68,30.10,10.0,SSE,5.8,-,N/A,,Clear,150,2014-04-03 16:35:00
12:55 PM,67.1,53.6,62,30.08,10.0,SSE,4.6,-,N/A,,Clear,150,2014-04-03 16:55:00
1:15 PM,69.1,52.3,55,30.06,10.0,SSE,5.8,-,N/A,,Clear,160,2014-04-03 17:15:00
1:35 PM,71.1,51.8,50,30.06,10.0,SE,5.8,-,N/A,,Clear,130,2014-04-03 17:35:00
1:55 PM,71.2,51.6,50,30.05,10.0,East,4.6,-,N/A,,Clear,100,2014-04-03 17:55:00
2:15 PM,73.4,49.3,42,30.03,10.0,SE,6.9,-,N/A,,Clear,140,2014-04-03 18:15:00
2:35 PM,74.8,48.2,39,30.02,10.0,SSE,6.9,-,N/A,,Clear,160,2014-04-03 18:35:00
2:55 PM,76.5,47.8,36,30.02,10.0,ESE,4.6,-,N/A,,Clear,110,2014-04-03 18:55:00
3:15 PM,77.4,46.9,34,30.01,10.0,ESE,4.6,-,N/A,,Clear,120,2014-04-03 19:15:00
3:35 PM,77.9,48.4,35,29.99,10.0,NE,4.6,-,N/A,,Clear,50,2014-04-03 19:35:00
3:55 PM,79.2,47.1,32,29.98,10.0,SSW,6.9,-,N/A,,Clear,210,2014-04-03 19:55:00
4:15 PM,80.6,46.4,30,29.96,10.0,SE,4.6,-,N/A,,Clear,140,2014-04-03 20:15:00
4:35 PM,80.1,45.9,30,29.95,10.0,SE,4.6,-,N/A,,Clear,140,2014-04-03 20:35:00
4:55 PM,81.5,45.5,28,29.94,10.0,Calm,Calm,-,N/A,,Clear,0,2014-04-03 20:55:00
5:15 PM,82.4,43.3,25,29.93,10.0,South,5.8,-,N/A,,Clear,170,2014-04-03 21:15:00
5:35 PM,82.2,39.2,22,29.93,10.0,SSW,3.5,-,N/A,,Clear,200,2014-04-03 21:35:00
5:55 PM,82.8,37.8,20,29.93,10.0,South,9.2,-,N/A,,Clear,190,2014-04-03 21:55:00
6:15 PM,82.0,41.7,24,29.93,10.0,South,9.2,-,N/A,,Clear,190,2014-04-03 22:15:00
6:35 PM,81.5,44.4,27,29.93,10.0,South,6.9,-,N/A,,Clear,190,2014-04-03 22:35:00
6:55 PM,80.2,45.5,29,29.93,10.0,SSW,9.2,17.3,N/A,,Clear,210,2014-04-03 22:55:00
7:15 PM,79.0,47.3,33,29.93,10.0,SSW,9.2,19.6,N/A,,Clear,200,2014-04-03 23:15:00
7:35 PM,77.4,48.6,36,29.93,10.0,South,5.8,-,N/A,,Clear,180,2014-04-03 23:35:00
7:55 PM,75.7,49.5,40,29.94,10.0,South,8.1,-,N/A,,Clear,180,2014-04-03 23:55:00
8:15 PM,75.6,49.8,40,29.93,10.0,South,4.6,-,N/A,,Clear,190,2014-04-04 00:15:00
8:35 PM,74.8,50.0,42,29.94,10.0,SSW,4.6,-,N/A,,Clear,200,2014-04-04 00:35:00
8:55 PM,74.7,50.2,42,29.95,10.0,South,5.8,-,N/A,,Clear,190,2014-04-04 00:55:00
9:15 PM,74.7,50.9,43,29.95,10.0,SSW,8.1,-,N/A,,Clear,210,2014-04-04 01:15:00
9:35 PM,74.3,51.3,44,29.95,10.0,SW,13.8,18.4,N/A,,Clear,220,2014-04-04 01:35:00
9:55 PM,73.6,52.0,47,29.95,10.0,SSW,10.4,16.1,N/A,,Clear,200,2014-04-04 01:55:00
10:15 PM,73.8,52.3,47,29.95,10.0,SSW,9.2,19.6,N/A,,Clear,210,2014-04-04 02:15:00
10:35 PM,73.4,52.9,49,29.95,10.0,SW,12.7,18.4,N/A,,Clear,220,2014-04-04 02:35:00